Weather History for KORE - February, 2014

Change the Weather History Date:

Friday, February 14, 2014

  Actual Average Record
Temperature  
Mean Temperature 30 °F -  
Max Temperature 34 °F 33 °F 52 °F (2011)
Min Temperature 25 °F 13 °F -9 °F (2003)
Degree Days  
Heating Degree Days 36    
Moisture  
Dew Point 24 °F    
Average Humidity 83    
Maximum Humidity 96    
Minimum Humidity 59    
Precipitation  
Precipitation 0.36 in - - ()
Sea Level Pressure  
Sea Level Pressure 29.07 in    
Wind  
Wind Speed 10 mph (NW)    
Max Wind Speed 20 mph    
Max Gust Speed 33 mph    
Visibility 4 miles    
Events Fog , Rain , Snow    
Averages and records for this station are not official NWS values.
T = Trace of Precipitation, MM = Missing Value Source: NWS Daily Summary

Daily Weather History Graph

Daily Weather History Graph

Search for Another Location

Airport or City:

Trip Planner

Search our weather history database for the weather conditions in past years. The results will help you decide how hot, cold, wet, or windy it might be!

Date:

Astronomy

Feb. 14, 2014 Rise Set
Actual Time 6:47 AM EST 5:19 PM EST
Civil Twilight 6:18 AM EST 5:48 PM EST
Nautical Twilight 5:45 AM EST 6:21 PM EST
Astronomical Twilight 5:12 AM EST 6:54 PM EST
Moon 5:22 PM EST (2/14) 6:12 AM EST (2/14)
Length of Visible Light 11h 30m
Length of Day
10h 32m
Full, 100% of the Moon is Illuminated
Feb 14
Full
Feb 14
Full
Feb 22
Last Quarter
Mar 1
New
Mar 8
First Quarter

Hourly Weather History & Observations

Time (EST) Temp. Windchill Dew Point Humidity Pressure Visibility Wind Dir Wind Speed Gust Speed Precip Events Conditions
12:07 AM 32.0 °F 22.5 °F 28.9 °F 88% 29.00 in 4.0 mi North 12.7 mph 23.0 mph 0.02 in   Overcast
12:37 AM 33.1 °F 28.7 °F 28.9 °F 85% 29.02 in 4.0 mi Variable 4.6 mph - 0.05 in   Overcast
12:52 AM 33.1 °F - 30.0 °F 89% 29.08 in 2.5 mi Calm Calm - 0.13 in Rain Heavy Rain
1:11 AM 32.0 °F 27.5 °F 30.0 °F 92% 29.04 in 1.2 mi NNW 4.6 mph - 0.05 in Snow Light Snow
1:40 AM 32.0 °F 25.6 °F 30.0 °F 92% 28.99 in 0.8 mi North 6.9 mph - 0.11 in Snow Light Snow
1:52 AM 32.0 °F 24.2 °F 30.0 °F 92% 28.98 in 0.8 mi North 9.2 mph - 0.12 in Snow Light Snow
2:14 AM 32.0 °F 23.6 °F 30.9 °F 96% 28.91 in 0.5 mi NW 10.4 mph - 0.03 in Fog , Snow Snow
2:22 AM 32.0 °F 25.6 °F 30.9 °F 96% 28.91 in 1.0 mi North 6.9 mph - 0.03 in Snow Light Snow
2:28 AM 32.0 °F 24.8 °F 30.9 °F 96% 28.91 in 1.5 mi NNW 8.1 mph - 0.03 in Snow Light Snow
2:37 AM 30.9 °F 25.2 °F 30.0 °F 96% 28.92 in 3.0 mi NW 5.8 mph - 0.03 in Snow Light Snow
2:52 AM 30.0 °F 22.4 °F 28.0 °F 92% 28.93 in 2.5 mi NW 8.1 mph - 0.03 in Snow Light Snow
3:14 AM 30.0 °F 22.4 °F 28.0 °F 92% 28.90 in 1.8 mi NW 8.1 mph - 0.01 in Snow Light Snow
3:20 AM 30.0 °F 21.7 °F 28.0 °F 92% 28.89 in 1.2 mi NW 9.2 mph - 0.02 in Snow Light Snow
3:30 AM 30.0 °F 21.7 °F 28.0 °F 92% 28.89 in 1.5 mi NW 9.2 mph - 0.03 in Snow Light Snow
3:48 AM 30.2 °F 21.3 °F 28.4 °F 93% 28.89 in 1.5 mi NW 10.4 mph - 0.04 in Snow Light Snow
3:52 AM 30.0 °F 21.7 °F 28.0 °F 92% 28.90 in 1.5 mi NW 9.2 mph - 0.04 in Snow Light Snow
4:00 AM 30.0 °F 20.5 °F 28.0 °F 92% 28.89 in 1.2 mi NW 11.5 mph - 0.00 in Snow Light Snow
4:06 AM 30.0 °F 21.1 °F 28.0 °F 92% 28.89 in 1.5 mi NW 10.4 mph - 0.00 in Snow Light Snow
4:25 AM 28.9 °F 19.2 °F 27.0 °F 92% 28.90 in 1.2 mi NW 11.5 mph - 0.00 in Snow Light Snow
4:36 AM 28.9 °F 18.6 °F 27.0 °F 92% 28.91 in 1.0 mi NW 12.7 mph - 0.01 in Snow Light Snow
4:52 AM 28.9 °F 18.2 °F 27.0 °F 92% 28.93 in 1.0 mi NW 13.8 mph - 0.01 in Snow Light Snow
5:04 AM 30.0 °F 22.4 °F 27.0 °F 88% 28.92 in 1.2 mi NNW 8.1 mph - 0.01 in Snow Light Snow
5:21 AM 30.0 °F 21.7 °F 27.0 °F 88% 28.92 in 1.5 mi NNW 9.2 mph - 0.01 in Snow Light Snow
5:23 AM 28.9 °F 20.4 °F 27.0 °F 92% 28.92 in 1.2 mi NNW 9.2 mph - 0.01 in Snow Light Snow
5:30 AM 28.9 °F 17.3 °F 27.0 °F 92% 28.92 in 1.8 mi NNW 16.1 mph 23.0 mph 0.01 in Snow Light Snow
5:38 AM 28.9 °F 16.9 °F 26.1 °F 89% 28.92 in 2.0 mi NNW 17.3 mph 23.0 mph 0.01 in Snow Light Snow
5:44 AM 28.9 °F 17.3 °F 26.1 °F 89% 28.92 in 1.2 mi NW 16.1 mph 21.9 mph 0.01 in Snow Light Snow
5:47 AM 28.4 °F 18.0 °F 24.8 °F 86% 28.93 in 1.0 mi NW 12.7 mph 21.9 mph 0.01 in Snow Light Snow
5:52 AM 28.0 °F 18.6 °F 25.0 °F 88% 28.94 in 1.0 mi NW 10.4 mph 21.9 mph 0.01 in Snow Light Snow
6:01 AM 28.0 °F 17.5 °F 25.0 °F 88% 28.93 in 1.0 mi NW 12.7 mph - 0.01 in Snow Light Snow
6:26 AM 27.0 °F 16.7 °F 24.1 °F 89% 28.93 in 0.8 mi NW 11.5 mph - 0.01 in Snow Light Snow
6:34 AM 27.0 °F 18.0 °F 24.1 °F 89% 28.94 in 1.0 mi NW 9.2 mph - 0.01 in Snow Light Snow
6:44 AM 26.1 °F 16.2 °F 23.0 °F 88% 28.94 in 1.0 mi NW 10.4 mph - 0.01 in Snow Light Snow
6:52 AM 26.1 °F 14.5 °F 23.0 °F 88% 28.96 in 1.2 mi NW 13.8 mph - 0.01 in Snow Light Snow
6:59 AM 26.1 °F 15.6 °F 23.0 °F 88% 28.94 in 2.0 mi NW 11.5 mph - 0.00 in Snow Light Snow
7:10 AM 26.1 °F 14.0 °F 23.0 °F 88% 28.95 in 3.0 mi NW 15.0 mph 20.7 mph 0.00 in Snow Light Snow
7:34 AM 26.1 °F 15.6 °F 21.9 °F 84% 28.97 in 5.0 mi NW 11.5 mph - 0.00 in Snow Light Snow
7:52 AM 26.1 °F 15.0 °F 23.0 °F 88% 29.00 in 4.0 mi WNW 12.7 mph 21.9 mph 0.00 in Snow Light Snow
8:01 AM 26.1 °F 13.6 °F 21.9 °F 84% 28.99 in 1.8 mi WNW 16.1 mph 25.3 mph 0.00 in Snow Light Snow
8:06 AM 26.1 °F 14.5 °F 21.9 °F 84% 29.00 in 1.0 mi WNW 13.8 mph 25.3 mph 0.01 in Snow Light Snow
8:12 AM 26.1 °F 14.5 °F 21.9 °F 84% 29.01 in 0.8 mi WNW 13.8 mph 24.2 mph 0.01 in Snow Light Snow
8:31 AM 25.0 °F 14.2 °F 21.0 °F 85% 29.03 in 1.2 mi NW 11.5 mph - 0.01 in Snow Light Snow
8:34 AM 25.0 °F 15.5 °F 21.0 °F 85% 29.03 in 2.0 mi WNW 9.2 mph - 0.01 in Snow Light Snow
8:38 AM 25.0 °F 16.3 °F 21.0 °F 85% 29.03 in 4.0 mi WNW 8.1 mph - 0.01 in Snow Light Snow
8:52 AM 26.1 °F 14.5 °F 19.9 °F 78% 29.06 in 10.0 mi WNW 13.8 mph 24.2 mph 0.01 in   Overcast
9:52 AM 26.1 °F 15.0 °F 19.0 °F 75% 29.10 in 10.0 mi West 12.7 mph 21.9 mph 0.00 in   Partly Cloudy
10:52 AM 28.0 °F 15.7 °F 19.0 °F 69% 29.14 in 9.0 mi West 17.3 mph 33.4 mph 0.00 in   Overcast
11:52 AM 28.0 °F 16.5 °F 18.0 °F 66% 29.21 in 10.0 mi West 15.0 mph 26.5 mph 0.00 in   Scattered Clouds
12:52 PM 28.9 °F 19.8 °F 18.0 °F 64% 29.25 in 10.0 mi West 10.4 mph 24.2 mph 0.00 in   Overcast
1:52 PM 30.9 °F 22.2 °F 19.0 °F 61% 29.29 in 10.0 mi WNW 10.4 mph - 0.00 in   Overcast
2:52 PM 34.0 °F 22.7 °F 21.9 °F 61% 29.33 in 10.0 mi WNW 19.6 mph 27.6 mph 0.00 in Rain Light Rain
3:52 PM 32.0 °F 24.8 °F 21.9 °F 66% 29.39 in 10.0 mi WSW 8.1 mph 26.5 mph 0.00 in   Overcast
4:52 PM 32.0 °F 23.6 °F 19.9 °F 61% 29.45 in 10.0 mi West 10.4 mph - N/A   Partly Cloudy
5:52 PM 30.9 °F 21.2 °F 18.0 °F 59% 29.50 in 10.0 mi West 12.7 mph - N/A   Clear
6:52 PM 30.0 °F 20.5 °F 17.1 °F 59% 29.56 in 10.0 mi West 11.5 mph 19.6 mph N/A   Clear
7:52 PM 30.0 °F 21.1 °F 17.1 °F 59% 29.60 in 10.0 mi WNW 10.4 mph 17.3 mph N/A   Scattered Clouds
8:52 PM 28.9 °F 21.1 °F 18.0 °F 64% 29.69 in 10.0 mi SW 8.1 mph - N/A   Clear
9:52 PM 28.9 °F 21.9 °F 18.0 °F 64% 29.70 in 10.0 mi WSW 6.9 mph - N/A   Clear
10:52 PM 26.1 °F 19.4 °F 17.1 °F 69% 29.72 in 10.0 mi South 5.8 mph - N/A   Partly Cloudy
11:52 PM 25.0 °F 17.1 °F 17.1 °F 72% 29.74 in 10.0 mi West 6.9 mph - N/A   Partly Cloudy